PSLV R/B, 40548

Orbit data source: Space-Track

PSLV R/B, 40548 is space debris in HEO originally from a launch on Sat, 28 Mar 2015 UTC launched from the Sirharikota (SRI). Debris objects in space refer to the collection of defunct objects orbiting the Earth. Examples of debris include non-operational satellites, rocket bodies, and fragments generated from explosions, collisions, or faulty payload assembly.

Loading next visibility...
Identifier
40548, 2015-018B
Orbit
HEO
Country
Flag of ININ / IND
Related business
Manufacturer
VSSC/LPSC
Mission
Spacecraft
Bus & Motor
PS-4, Unknown motor
Mass
920 kg wet, 920 kg dry
Launch date (UTC)
2015-03-28 (11 years ago)
Launch vehicle
Unknown
Launch site
Sirharikota (SRI)
Object type
Payload
Rocket body
Debris
Shape & HBR
Cyl + Cyl + 2 Nozzle, 1.6 m
Radar Cross Section
3.727 m², Large (>1 m²)

Expand to show TLE details & history
Last TLE update: 20 hours ago

TLE from 20 hours ago
0 PSLV R/B
1 40548U 15018B   26023.28145855  .00030591  00000-0  22199-2 0  9990
2 40548  19.0737 294.4272 5777367  20.7560 355.3809  4.42740113162145
Epoch: 2026-01-23T06:45Z
TLE epoch observation values (Epoch: 2026-01-23T06:45:18.018Z)
Latitude
-0.00023°
Longitude
70.49512°
Altitude
389.007 km
Speed
9.61 km/s
True Right ascension
19h 37m 46s
True Declination
0° 00' 01"
Sunlit
Object was in daylight at epoch
Visualization orbit readout
Latitude
Unknown
Longitude
Unknown
Altitude
Unknown
Speed
Unknown
Apparent Right ascension
Unknown
Apparent Declination
Unknown
Sunlit
N/A
Visualization observer readout
Local Sidereal Time
03:33:29
Azimuth
Unknown
Elevation
Unknown
Doppler factor
Unknown
Orbital elements
Apogee altitude
18,346.187 km
Perigee altitude
239.047 km
Semi-major axis
15,670.754 km
Eccentricity
0.57774
Inclination
19.0737°
RAAN
294.4272°
Arg. of periapsis
20.756°
True anomaly
339.19534°
Mean anomaly
355.3809°
Eccentric anomaly
349.14966°
Mean motion
1.10639 °/min
Orbital period
325.38 mins
BSTAR
0.0022199
Loading maneuver chart data...
Computing Atmospheric mass density...
Loading historical data...
Loading historical data...
Loading historical data...
Loading historical data...
Loading historical data...
Loading historical data...
Loading historical data...
Other satellites on launch #18 in the year 2015 (2015-03-28 UTC)

Documentation

Showing up to 5 results
|